sat.trackr.live / text

‹ back to catalog

STARLINK-34301

NORAD 64349 · 2025-126F

PAYLOAD ACTIVE UNKNOWN

§ Identity

Operator
Country
US
Launch date
2025-06-13
Launch site
AFWTR
Launch vehicle
Mass (kg)
RCS (m²)

Purposes: comms

External: N2YO · Heavens-Above · Gunter

§ Orbital elements

Epoch: 2026-09-20T09:46:07.842144Z

Period
94.14 min
Inclination
70.0009°
Eccentricity
0.0003476
Mean motion
15.29587695 rev/d
Perigee alt
474.7 km
Apogee alt
479.4 km
Semi-major
6,855.2 km
B*
5.2396e-4
RAAN
261.3117°
Arg perigee
275.3976°
Mean anomaly
84.6802°
Rev number
6,990

§ Raw data

STARLINK-343011 64349U 25126F   26263.40703521  .00014968  00000+0  52396-3 0  99982 64349  70.0009 261.3117 0003476 275.3976  84.6802 15.29587695 69903

JSON: /api/v1/satellites/64349 · /tle

For live sub-satellite position, see the globe view (requires WebGL).

§ Visibility from observer

Set your observer location to see the next 7 days of passes ≥ 10°. The values pass through the URL so the page stays shareable.

No JS? Fill the form by hand. The geolocation button needs JavaScript.